"SCET";"TARGET";"ELECTRON_DENSITY";"ERROR_FLAG";"ELECTRON_DENSITY_ERROR";"FREQ_FCE";"MEASURED_VALUE";"MEASURED_ITEM";"FREQ_PLASMA";"FREQ_UPPER_HYBRID";"FREQ_R_EQUALS_ZERO";"FREQ_L_EQUALS_ZERO";"ORBIT_NUMBER";"SATURN_RADIUS";"SATURN_IAU_LONGITUDE";"SATURN_SLS4_S_LONGITUDE";"SATURN_SLS4_N_LONGITUDE";"SATURN_SLS5_S_LONGITUDE";"SATURN_SLS5_N_LONGITUDE";"SATURN_LOCAL_TIME";"SATURN_KRONOGRAPHIC_LATITUDE";"SATURN_MAGNETIC_LATITUDE";"SATURN_L";"SATURN_L_OFFSET";"SATURN_SOLAR_EQUATORIAL_X";"SATURN_SOLAR_EQUATORIAL_Y";"SATURN_SOLAR_EQUATORIAL_Z";"SATURN_ALTITUDE";"ENCELADUS_ENCOUNTER_NUMBER";"ENCELADUS_RADIUS";"ENCELADUS_COROTATIONAL_X";"ENCELADUS_COROTATIONAL_Y";"ENCELADUS_COROTATIONAL_Z";"ENCELADUS_TRUE_ANOMALY";"ENCELADUS_PERIAPSIS_TIME";"JUPITER_RADIUS";"JUPITER_SYSTEMIII_LONGITUDE";"JUPITER_MAGNETIC_LATITUDE";"JUPITER_MAGNETIC_LOCAL_TIME";"JUPITER_L";"IO_PHASE";"EARTH_RADIUS";"EARTH_MAGNETIC_LATITUDE";"EARTH_LOCAL_TIME";"EARTH_L"
"[UTC]";"[0=Saturn, 1=Enceladus, 2=Jupiter, 3=Earth]";"[cm-3]";"[0=automated, 1=manual]";"[normalized density error]";"[Hz]";"[Hz]";"[0=upper hybrid frequency, 1=plasma frequency cutoff]";"[Hz]";"[Hz]";"[Hz]";"[Hz}";"[0, A, B, C, 3, 4, ... , 292, 293]";"[Rs where 1Rs=60268km]";"[degrees]";"[degrees]";"[degrees]";"[degrees]";"[degrees]";"[hours]";"[degrees]";"[degrees where offset=2293km north]";"[Rs where 1Rs=60268km]";"[Rs where 1Rs=60268km and offset=2293km north]";"[Rs where 1Rs=60268km]";"[Rs where 1Rs=60268km]";"[Rs where 1Rs=60268km]";"[km where ellipsoid a,b=60268km and c=54364km]";"[E0, E1, E2, ... , E21, E22]";"[Renc where 1Renc=252.1km]";"[Renc where 1Renc=252.1km]";"[Renc where 1Renc=252.1km]";"[Renc where 1Renc=252.1km]";"[degrees]";"[UTC]";"[Rj where 1Rj=71492km]";"[degrees]";"[degrees using JRM09 model]";"[hours using JRM09 model]";"[Rj where 1Rj=71492km]";"[degrees]";"[Re where 1Re=6378.1366km]";"[degrees]";"[hours]";"[Re where 1Re=6378.1366km]"
2007-12-03T00:00:10.510Z;0;7.4730e+00;0;     0.139;  2331.784;  24659.432; 0;  24548.938;  24659.432;  25742.500;  23410.717; 53;   6.335; 281.581; 146.068; 165.605; 133.882; 153.783;  18.280;  12.272;  11.935;   6.634;   6.320;  -0.453;   6.173;   1.346;;;;;;;;;;;;;;;;;;
2007-12-03T00:00:26.510Z;0;7.5380e+00;0;     0.109;  2331.784;  24764.877; 0;  24654.855;  24764.877;  25848.299;  23516.516; 53;   6.332; 281.710; 146.194; 165.735; 134.008; 153.913;  18.281;  12.271;  11.934;   6.632;   6.318;  -0.455;   6.171;   1.346;;;;;;;;;;;;;;;;;;
2007-12-03T00:00:42.510Z;0;7.5530e+00;0;     0.090;  2331.784;  24788.893; 0;  24678.979;  24788.893;  25872.395;  23540.611; 53;   6.329; 281.839; 146.321; 165.865; 134.135; 154.042;  18.282;  12.270;  11.933;   6.629;   6.315;  -0.457;   6.168;   1.345;;;;;;;;;;;;;;;;;;
2007-12-03T00:00:58.510Z;0;7.7070e+00;0;     0.071;  2331.784;  25039.262; 0;  24930.451;  25039.262;  26123.590;  23791.807; 53;   6.327; 281.968; 146.448; 165.995; 134.261; 154.171;  18.284;  12.269;  11.932;   6.626;   6.312;  -0.459;   6.165;   1.345;;;;;;;;;;;;;;;;;;
2007-12-03T00:01:14.510Z;0;7.6650e+00;0;     0.063;  2341.444;  24971.566; 0;  24861.553;  24971.566;  26059.822;  23718.379; 53;   6.324; 282.097; 146.574; 166.125; 134.388; 154.300;  18.285;  12.269;  11.931;   6.623;   6.310;  -0.461;   6.163;   1.344;;;;;;;;;;;;;;;;;;
2007-12-03T00:01:30.510Z;0;7.5790e+00;0;     0.062;  2341.444;  24831.789; 0;  24721.152;  24831.789;  25919.580;  23578.137; 53;   6.322; 282.226; 146.701; 166.255; 134.514; 154.429;  18.287;  12.268;  11.930;   6.621;   6.307;  -0.463;   6.160;   1.343;;;;;;;;;;;;;;;;;;
2007-12-03T00:01:46.510Z;0;7.6660e+00;0;     0.055;  2341.444;  24973.596; 0;  24863.590;  24973.596;  26061.859;  23720.416; 53;   6.319; 282.355; 146.828; 166.385; 134.640; 154.558;  18.288;  12.267;  11.930;   6.618;   6.305;  -0.465;   6.158;   1.343;;;;;;;;;;;;;;;;;;
2007-12-03T00:02:02.510Z;0;7.6010e+00;0;     0.056;  2352.812;  24869.982; 0;  24758.439;  24869.982;  25962.777;  23609.967; 53;   6.317; 282.483; 146.954; 166.515; 134.767; 154.687;  18.289;  12.266;  11.929;   6.615;   6.302;  -0.467;   6.155;   1.342;;;;;;;;;;;;;;;;;;
2007-12-03T00:02:18.510Z;0;7.5720e+00;0;     0.057;  2352.812;  24822.383; 0;  24710.625;  24822.383;  25915.018;  23562.205; 53;   6.314; 282.612; 147.081; 166.645; 134.893; 154.816;  18.291;  12.265;  11.928;   6.612;   6.300;  -0.470;   6.152;   1.341;;;;;;;;;;;;;;;;;;
2007-12-03T00:02:34.510Z;0;7.3830e+00;0;     0.077;  2352.812;  24513.055; 0;  24399.879;  24513.055;  25604.629;  23251.816; 53;   6.311; 282.741; 147.207; 166.775; 135.019; 154.944;  18.292;  12.264;  11.927;   6.610;   6.297;  -0.472;   6.150;   1.341;;;;;;;;;;;;;;;;;;
2007-12-03T00:02:50.510Z;0;7.4840e+00;0;     0.059;  2352.812;  24678.715; 0;  24566.303;  24678.715;  25770.859;  23418.049; 53;   6.309; 282.870; 147.334; 166.905; 135.145; 155.073;  18.294;  12.264;  11.926;   6.607;   6.295;  -0.474;   6.147;   1.340;;;;;;;;;;;;;;;;;;
2007-12-03T00:03:06.510Z;0;7.5000e+00;0;     0.063;  2363.508;  24706.320; 0;  24593.010;  24706.320;  25803.141;  23439.631; 53;   6.306; 282.999; 147.460; 167.035; 135.270; 155.201;  18.295;  12.263;  11.925;   6.604;   6.292;  -0.476;   6.144;   1.339;;;;;;;;;;;;;;;;;;
2007-12-03T00:03:22.510Z;0;7.4850e+00;0;     0.069;  2363.508;  24681.926; 0;  24568.502;  24681.926;  25778.660;  23415.152; 53;   6.304; 283.127; 147.587; 167.165; 135.396; 155.330;  18.297;  12.262;  11.924;   6.602;   6.289;  -0.478;   6.142;   1.339;;;;;;;;;;;;;;;;;;
2007-12-03T00:03:38.510Z;0;7.5190e+00;0;     0.067;  2363.508;  24737.395; 0;  24624.227;  24737.395;  25834.320;  23470.812; 53;   6.301; 283.256; 147.713; 167.295; 135.522; 155.458;  18.298;  12.261;  11.923;   6.599;   6.287;  -0.480;   6.139;   1.338;;;;;;;;;;;;;;;;;;
2007-12-03T00:03:54.510Z;0;7.4460e+00;0;     0.070;  2363.508;  24618.061; 0;  24504.342;  24618.061;  25714.574;  23351.066; 53;   6.299; 283.385; 147.840; 167.425; 135.647; 155.586;  18.299;  12.260;  11.922;   6.596;   6.284;  -0.482;   6.136;   1.338;;;;;;;;;;;;;;;;;;
2007-12-03T00:04:10.510Z;0;7.5050e+00;0;     0.066;  2374.232;  24715.373; 0;  24601.070;  24715.373;  25816.812;  23442.580; 53;   6.296; 283.513; 147.966; 167.555; 135.773; 155.714;  18.301;  12.259;  11.921;   6.593;   6.282;  -0.484;   6.134;   1.337;;;;;;;;;;;;;;;;;;
2007-12-03T00:04:26.508Z;0;7.5640e+00;0;     0.066;  2374.232;  24811.951; 0;  24698.096;  24811.951;  25913.725;  23539.492; 53;   6.294; 283.642; 148.093; 167.685; 135.898; 155.842;  18.302;  12.258;  11.920;   6.591;   6.279;  -0.486;   6.131;   1.336;;;;;;;;;;;;;;;;;;
2007-12-03T00:04:42.508Z;0;7.6030e+00;0;     0.066;  2374.232;  24874.977; 0;  24761.412;  24874.977;  25976.967;  23602.734; 53;   6.291; 283.771; 148.219; 167.815; 136.023; 155.970;  18.304;  12.258;  11.919;   6.588;   6.277;  -0.489;   6.128;   1.336;;;;;;;;;;;;;;;;;;
2007-12-03T00:04:58.508Z;0;7.6640e+00;0;     0.063;  2374.232;  24972.965; 0;  24859.848;  24972.965;  26075.291;  23701.059; 53;   6.288; 283.899; 148.345; 167.945; 136.149; 156.098;  18.305;  12.257;  11.918;   6.585;   6.274;  -0.491;   6.126;   1.335;;;;;;;;;;;;;;;;;;
2007-12-03T00:05:14.508Z;0;7.6760e+00;0;     0.063;  2385.068;  24994.398; 0;  24880.342;  24994.398;  26101.439;  23716.371; 53;   6.286; 284.028; 148.472; 168.075; 136.274; 156.226;  18.307;  12.256;  11.917;   6.582;   6.272;  -0.493;   6.123;   1.334;;;;;;;;;;;;;;;;;;
2007-12-03T00:05:30.508Z;0;7.7070e+00;0;     0.062;  2385.068;  25043.311; 0;  24929.479;  25043.311;  26150.518;  23765.451; 53;   6.283; 284.157; 148.598; 168.204; 136.399; 156.354;  18.308;  12.255;  11.915;   6.580;   6.269;  -0.495;   6.120;   1.334;;;;;;;;;;;;;;;;;;
2007-12-03T00:05:46.508Z;0;7.6820e+00;0;     0.061;  2385.068;  25004.057; 0;  24890.045;  25004.057;  26111.131;  23726.062; 53;   6.281; 284.285; 148.724; 168.334; 136.524; 156.481;  18.309;  12.254;  11.914;   6.577;   6.266;  -0.497;   6.118;   1.333;;;;;;;;;;;;;;;;;;
2007-12-03T00:06:02.508Z;0;7.6950e+00;0;     0.066;  2396.688;  25025.176; 0;  24910.145;  25025.176;  26137.297;  23740.607; 53;   6.278; 284.414; 148.851; 168.464; 136.648; 156.609;  18.311;  12.253;  11.913;   6.574;   6.264;  -0.499;   6.115;   1.332;;;;;;;;;;;;;;;;;;
2007-12-03T00:06:18.508Z;0;7.7310e+00;0;     0.065;  2396.688;  25083.043; 0;  24968.279;  25083.043;  26195.363;  23798.676; 53;   6.276; 284.542; 148.977; 168.594; 136.773; 156.736;  18.312;  12.252;  11.912;   6.572;   6.261;  -0.501;   6.112;   1.332;;;;;;;;;;;;;;;;;;
2007-12-03T00:06:50.883Z;0;7.6710e+00;0;     0.069;  2396.688;  24985.941; 0;  24870.729;  24985.941;  26097.926;  23701.238; 53;   6.270; 284.802; 149.233; 168.856; 137.025; 156.994;  18.315;  12.250;  11.910;   6.566;   6.256;  -0.505;   6.107;   1.331;;;;;;;;;;;;;;;;;;
2007-12-03T00:07:06.508Z;0;7.8040e+00;0;     0.072;  2407.944;  25201.973; 0;  25086.674;  25201.973;  26319.521;  23911.576; 53;   6.268; 284.928; 149.356; 168.983; 137.147; 157.118;  18.317;  12.250;  11.909;   6.563;   6.254;  -0.507;   6.104;   1.330;;;;;;;;;;;;;;;;;;
2007-12-03T00:07:22.508Z;0;7.7050e+00;0;     0.063;  2407.944;  25042.271; 0;  24926.234;  25042.271;  26159.266;  23751.322; 53;   6.265; 285.056; 149.482; 169.113; 137.271; 157.245;  18.318;  12.249;  11.908;   6.561;   6.251;  -0.510;   6.102;   1.329;;;;;;;;;;;;;;;;;;
2007-12-03T00:08:10.508Z;0;7.7610e+00;0;     0.057;  2418.612;  25133.797; 0;  25017.156;  25133.797;  26255.672;  23837.061; 53;   6.258; 285.441; 149.861; 169.502; 137.644; 157.626;  18.322;  12.246;  11.905;   6.552;   6.243;  -0.516;   6.094;   1.327;;;;;;;;;;;;;;;;;;
2007-12-03T00:08:26.508Z;0;7.8080e+00;0;     0.055;  2418.612;  25208.381; 0;  25092.086;  25208.381;  26330.516;  23911.904; 53;   6.255; 285.570; 149.987; 169.631; 137.768; 157.752;  18.324;  12.245;  11.904;   6.550;   6.241;  -0.518;   6.091;   1.327;;;;;;;;;;;;;;;;;;
2007-12-03T00:08:42.508Z;0;7.8200e+00;0;     0.055;  2418.612;  25228.586; 0;  25112.385;  25228.586;  26350.791;  23932.180; 53;   6.252; 285.698; 150.113; 169.761; 137.892; 157.879;  18.325;  12.244;  11.903;   6.547;   6.238;  -0.520;   6.088;   1.326;;;;;;;;;;;;;;;;;;
2007-12-03T00:08:58.508Z;0;7.8480e+00;0;     0.057;  2418.612;  25273.451; 0;  25157.457;  25273.451;  26395.812;  23977.199; 53;   6.250; 285.827; 150.239; 169.890; 138.016; 158.006;  18.327;  12.243;  11.902;   6.544;   6.236;  -0.522;   6.086;   1.325;;;;;;;;;;;;;;;;;;
2007-12-03T00:09:14.506Z;0;7.8640e+00;0;     0.056;  2429.560;  25298.934; 0;  25182.004;  25298.934;  26426.066;  23996.506; 53;   6.247; 285.955; 150.365; 170.020; 138.140; 158.132;  18.328;  12.242;  11.901;   6.541;   6.233;  -0.524;   6.083;   1.325;;;;;;;;;;;;;;;;;;
2007-12-03T00:09:30.506Z;0;7.9000e+00;0;     0.057;  2429.560;  25357.344; 0;  25240.684;  25357.344;  26484.680;  24055.119; 53;   6.245; 286.083; 150.491; 170.150; 138.263; 158.258;  18.330;  12.241;  11.900;   6.539;   6.230;  -0.526;   6.080;   1.324;;;;;;;;;;;;;;;;;;
2007-12-03T00:09:46.506Z;0;7.9200e+00;0;     0.059;  2429.560;  25388.816; 0;  25272.303;  25388.816;  26516.260;  24086.701; 53;   6.242; 286.212; 150.617; 170.279; 138.387; 158.385;  18.331;  12.241;  11.899;   6.536;   6.228;  -0.528;   6.078;   1.323;;;;;;;;;;;;;;;;;;
2007-12-03T00:10:02.506Z;0;7.9340e+00;0;     0.057;  2440.480;  25411.912; 0;  25294.453;  25411.912;  26544.109;  24103.629; 53;   6.240; 286.340; 150.744; 170.409; 138.511; 158.511;  18.333;  12.240;  11.898;   6.533;   6.225;  -0.531;   6.075;   1.323;;;;;;;;;;;;;;;;;;
2007-12-03T00:10:18.506Z;0;7.9310e+00;0;     0.056;  2440.480;  25407.676; 0;  25290.197;  25407.676;  26539.857;  24099.377; 53;   6.237; 286.468; 150.870; 170.538; 138.637; 158.640;  18.334;  12.239;  11.897;   6.531;   6.223;  -0.533;   6.072;   1.322;;;;;;;;;;;;;;;;;;
2007-12-03T00:10:34.506Z;0;7.9090e+00;0;     0.055;  2440.480;  25371.461; 0;  25253.812;  25371.461;  26503.516;  24063.037; 53;   6.234; 286.596; 150.996; 170.668; 138.763; 158.769;  18.336;  12.238;  11.896;   6.528;   6.220;  -0.535;   6.069;   1.322;;;;;;;;;;;;;;;;;;
2007-12-03T00:10:50.506Z;0;7.9610e+00;0;     0.055;  2440.480;  25455.023; 0;  25337.764;  25455.023;  26587.369;  24146.889; 53;   6.232; 286.725; 151.122; 170.797; 138.890; 158.898;  18.337;  12.237;  11.895;   6.525;   6.218;  -0.537;   6.067;   1.321;;;;;;;;;;;;;;;;;;
2007-12-03T00:11:06.506Z;0;8.0170e+00;0;     0.056;  2452.072;  25544.793; 0;  25426.832;  25544.793;  26682.410;  24230.338; 53;   6.229; 286.853; 151.248; 170.927; 139.016; 159.027;  18.338;  12.236;  11.894;   6.522;   6.215;  -0.539;   6.064;   1.320;;;;;;;;;;;;;;;;;;
2007-12-03T00:11:22.506Z;0;8.0220e+00;0;     0.057;  2452.072;  25552.602; 0;  25434.678;  25552.602;  26690.246;  24238.174; 53;   6.227; 286.981; 151.374; 171.056; 139.142; 159.156;  18.340;  12.235;  11.892;   6.520;   6.213;  -0.541;   6.061;   1.320;;;;;;;;;;;;;;;;;;
2007-12-03T00:11:38.506Z;0;8.0170e+00;0;     0.056;  2452.072;  25543.869; 0;  25425.904;  25543.869;  26681.482;  24229.410; 53;   6.224; 287.109; 151.499; 171.185; 139.269; 159.285;  18.341;  12.234;  11.891;   6.517;   6.210;  -0.543;   6.059;   1.319;;;;;;;;;;;;;;;;;;
2007-12-03T00:11:54.506Z;0;7.9900e+00;0;     0.055;  2452.072;  25500.832; 0;  25382.666;  25500.832;  26638.295;  24186.225; 53;   6.222; 287.237; 151.625; 171.315; 139.395; 159.414;  18.343;  12.233;  11.890;   6.514;   6.207;  -0.545;   6.056;   1.318;;;;;;;;;;;;;;;;;;
2007-12-03T00:12:10.506Z;0;8.0030e+00;0;     0.053;  2463.412;  25523.338; 0;  25404.180;  25523.338;  26665.729;  24202.316; 53;   6.219; 287.366; 151.751; 171.444; 139.522; 159.543;  18.344;  12.232;  11.889;   6.511;   6.205;  -0.547;   6.053;   1.318;;;;;;;;;;;;;;;;;;
2007-12-03T00:12:26.506Z;0;8.0050e+00;0;     0.052;  2463.412;  25526.188; 0;  25407.043;  25526.188;  26668.588;  24205.176; 53;   6.216; 287.494; 151.877; 171.574; 139.648; 159.673;  18.346;  12.231;  11.888;   6.509;   6.202;  -0.549;   6.051;   1.317;;;;;;;;;;;;;;;;;;
2007-12-03T00:12:42.506Z;0;8.0020e+00;0;     0.052;  2463.412;  25522.039; 0;  25402.875;  25522.039;  26664.424;  24201.014; 53;   6.214; 287.622; 152.003; 171.703; 139.775; 159.802;  18.347;  12.230;  11.887;   6.506;   6.200;  -0.552;   6.048;   1.316;;;;;;;;;;;;;;;;;;
2007-12-03T00:12:58.506Z;0;8.0080e+00;0;     0.052;  2463.412;  25530.969; 0;  25411.848;  25530.969;  26673.385;  24209.975; 53;   6.211; 287.750; 152.129; 171.832; 139.902; 159.931;  18.349;  12.229;  11.886;   6.503;   6.197;  -0.554;   6.045;   1.316;;;;;;;;;;;;;;;;;;
2007-12-03T00:13:14.506Z;0;8.0440e+00;0;     0.052;  2474.164;  25588.561; 0;  25468.666;  25588.561;  26735.773;  24261.611; 53;   6.209; 287.878; 152.255; 171.962; 140.028; 160.061;  18.350;  12.228;  11.885;   6.500;   6.195;  -0.556;   6.043;   1.315;;;;;;;;;;;;;;;;;;
2007-12-03T00:13:30.506Z;0;8.0840e+00;0;     0.053;  2474.164;  25652.035; 0;  25532.439;  25652.035;  26799.473;  24325.309; 53;   6.206; 288.006; 152.381; 172.091; 140.155; 160.190;  18.352;  12.227;  11.884;   6.498;   6.192;  -0.558;   6.040;   1.314;;;;;;;;;;;;;;;;;;
2007-12-03T00:13:46.506Z;0;8.1060e+00;0;     0.052;  2474.164;  25686.523; 0;  25567.088;  25686.523;  26834.082;  24359.918; 53;   6.204; 288.134; 152.506; 172.220; 140.282; 160.320;  18.353;  12.226;  11.883;   6.495;   6.189;  -0.560;   6.037;   1.314;;;;;;;;;;;;;;;;;;
2007-12-03T00:14:02.504Z;0;8.1450e+00;0;     0.054;  2486.176;  25749.043; 0;  25628.736;  25749.043;  26901.955;  24415.777; 53;   6.201; 288.262; 152.632; 172.349; 140.409; 160.449;  18.355;  12.226;  11.882;   6.492;   6.187;  -0.562;   6.034;   1.313;;;;;;;;;;;;;;;;;;
2007-12-03T00:14:18.504Z;0;8.1460e+00;0;     0.054;  2486.176;  25749.934; 0;  25629.631;  25749.934;  26902.848;  24416.672; 53;   6.198; 288.390; 152.758; 172.479; 140.536; 160.579;  18.356;  12.225;  11.880;   6.489;   6.184;  -0.564;   6.032;   1.313;;;;;;;;;;;;;;;;;;
2007-12-03T00:14:34.504Z;0;8.1600e+00;0;     0.060;  2486.176;  25771.936; 0;  25651.736;  25771.936;  26924.928;  24438.752; 53;   6.196; 288.518; 152.884; 172.608; 140.663; 160.709;  18.358;  12.224;  11.879;   6.487;   6.182;  -0.566;   6.029;   1.312;;;;;;;;;;;;;;;;;;
2007-12-03T00:14:50.504Z;0;8.1900e+00;0;     0.068;  2486.176;  25818.895; 0;  25698.916;  25818.895;  26972.051;  24485.875; 53;   6.193; 288.646; 153.009; 172.737; 140.790; 160.839;  18.359;  12.223;  11.878;   6.484;   6.179;  -0.568;   6.026;   1.311;;;;;;;;;;;;;;;;;;
2007-12-03T00:15:06.504Z;0;8.2060e+00;0;     0.073;  2497.292;  25844.381; 0;  25723.443;  25844.381;  27002.377;  24505.086; 53;   6.191; 288.774; 153.135; 172.866; 140.917; 160.968;  18.361;  12.222;  11.877;   6.481;   6.177;  -0.570;   6.024;   1.311;;;;;;;;;;;;;;;;;;
2007-12-03T00:15:22.504Z;0;8.3440e+00;0;     0.067;  2497.292;  26058.783; 0;  25938.846;  26058.783;  27217.527;  24720.236; 53;   6.188; 288.902; 153.261; 172.995; 141.044; 161.098;  18.362;  12.221;  11.876;   6.478;   6.174;  -0.573;   6.021;   1.310;;;;;;;;;;;;;;;;;;
2007-12-03T00:15:38.504Z;0;8.3450e+00;0;     0.071;  2497.292;  26061.566; 0;  25941.643;  26061.566;  27220.320;  24723.029; 53;   6.186; 289.030; 153.387; 173.124; 141.172; 161.228;  18.364;  12.220;  11.875;   6.476;   6.171;  -0.575;   6.018;   1.309;;;;;;;;;;;;;;;;;;
2007-12-03T00:15:54.504Z;0;8.3330e+00;0;     0.060;  2497.292;  26043.258; 0;  25923.248;  26043.258;  27201.949;  24704.656; 53;   6.183; 289.158; 153.512; 173.254; 141.299; 161.358;  18.365;  12.219;  11.874;   6.473;   6.169;  -0.577;   6.016;   1.309;;;;;;;;;;;;;;;;;;
2007-12-03T00:16:10.504Z;0;8.3700e+00;0;     0.059;  2508.072;  26100.455; 0;  25979.672;  26100.455;  27263.955;  24755.885; 53;   6.180; 289.286; 153.638; 173.383; 141.426; 161.488;  18.366;  12.218;  11.873;   6.470;   6.166;  -0.579;   6.013;   1.308;;;;;;;;;;;;;;;;;;
2007-12-03T00:16:26.504Z;0;8.4640e+00;0;     0.052;  2508.072;  26245.533; 0;  26125.420;  26245.533;  27409.537;  24901.465; 53;   6.178; 289.414; 153.763; 173.512; 141.554; 161.618;  18.368;  12.217;  11.872;   6.467;   6.164;  -0.581;   6.010;   1.307;;;;;;;;;;;;;;;;;;
2007-12-03T00:16:58.504Z;0;8.5010e+00;0;     0.052;  2508.072;  26302.951; 0;  26183.102;  26302.951;  27467.152;  24959.080; 53;   6.173; 289.669; 154.015; 173.770; 141.809; 161.878;  18.371;  12.215;  11.869;   6.462;   6.159;  -0.585;   6.005;   1.306;;;;;;;;;;;;;;;;;;
2007-12-03T00:17:14.504Z;0;8.5470e+00;0;     0.052;  2518.180;  26374.236; 0;  26253.744;  26374.236;  27543.010;  25024.830; 53;   6.170; 289.797; 154.140; 173.899; 141.936; 162.009;  18.372;  12.214;  11.868;   6.459;   6.156;  -0.587;   6.002;   1.305;;;;;;;;;;;;;;;;;;
2007-12-03T00:17:30.504Z;0;8.5590e+00;0;     0.053;  2518.180;  26391.652; 0;  26271.240;  26391.652;  27560.484;  25042.305; 53;   6.168; 289.925; 154.266; 174.028; 142.064; 162.139;  18.374;  12.213;  11.867;   6.456;   6.153;  -0.589;   5.999;   1.305;;;;;;;;;;;;;;;;;;
2007-12-03T00:17:46.504Z;0;8.5440e+00;0;     0.055;  2518.180;  26369.221; 0;  26248.707;  26369.221;  27537.977;  25019.797; 53;   6.165; 290.053; 154.391; 174.157; 142.191; 162.269;  18.375;  12.212;  11.866;   6.454;   6.151;  -0.591;   5.997;   1.304;;;;;;;;;;;;;;;;;;
2007-12-03T00:18:02.504Z;0;8.6010e+00;0;     0.057;  2529.744;  26457.893; 0;  26336.676;  26457.893;  27631.904;  25102.160; 53;   6.162; 290.180; 154.517; 174.286; 142.319; 162.400;  18.377;  12.211;  11.865;   6.451;   6.148;  -0.594;   5.994;   1.303;;;;;;;;;;;;;;;;;;
2007-12-03T00:18:18.504Z;0;8.6170e+00;0;     0.055;  2529.744;  26481.195; 0;  26360.086;  26481.195;  27655.287;  25125.543; 53;   6.160; 290.308; 154.642; 174.415; 142.447; 162.530;  18.378;  12.210;  11.864;   6.448;   6.146;  -0.596;   5.991;   1.303;;;;;;;;;;;;;;;;;;
2007-12-03T00:18:34.504Z;0;8.6260e+00;0;     0.053;  2529.744;  26496.021; 0;  26374.980;  26496.021;  27670.164;  25140.420; 53;   6.157; 290.436; 154.768; 174.544; 142.575; 162.661;  18.380;  12.209;  11.862;   6.445;   6.143;  -0.598;   5.988;   1.302;;;;;;;;;;;;;;;;;;
2007-12-03T00:18:50.502Z;0;8.6460e+00;0;     0.056;  2529.744;  26526.123; 0;  26405.219;  26526.123;  27700.369;  25170.625; 53;   6.155; 290.563; 154.893; 174.673; 142.703; 162.791;  18.381;  12.208;  11.861;   6.443;   6.140;  -0.600;   5.986;   1.301;;;;;;;;;;;;;;;;;;
2007-12-03T00:19:06.502Z;0;8.7030e+00;0;     0.063;  2540.496;  26612.654; 0;  26491.117;  26612.654;  27791.801;  25251.305; 53;   6.152; 290.691; 155.019; 174.802; 142.831; 162.922;  18.383;  12.207;  11.860;   6.440;   6.138;  -0.602;   5.983;   1.301;;;;;;;;;;;;;;;;;;
2007-12-03T00:19:22.502Z;0;8.7180e+00;0;     0.062;  2540.496;  26636.346; 0;  26514.916;  26636.346;  27815.574;  25275.078; 53;   6.149; 290.819; 155.144; 174.930; 142.959; 163.052;  18.384;  12.206;  11.859;   6.437;   6.135;  -0.604;   5.980;   1.300;;;;;;;;;;;;;;;;;;
2007-12-03T00:19:38.502Z;0;8.7130e+00;0;     0.061;  2540.496;  26628.348; 0;  26506.881;  26628.348;  27807.549;  25267.053; 53;   6.147; 290.946; 155.270; 175.059; 143.087; 163.183;  18.386;  12.205;  11.858;   6.434;   6.133;  -0.606;   5.978;   1.300;;;;;;;;;;;;;;;;;;
2007-12-03T00:19:54.502Z;0;8.7740e+00;0;     0.055;  2540.496;  26720.742; 0;  26599.697;  26720.742;  27900.258;  25359.764; 53;   6.144; 291.074; 155.395; 175.188; 143.215; 163.314;  18.387;  12.204;  11.857;   6.432;   6.130;  -0.608;   5.975;   1.299;;;;;;;;;;;;;;;;;;
2007-12-03T00:20:10.502Z;0;8.8760e+00;0;     0.051;  2551.304;  26874.723; 0;  26753.348;  26874.723;  28059.395;  25508.090; 53;   6.142; 291.202; 155.520; 175.317; 143.341; 163.444;  18.389;  12.203;  11.856;   6.429;   6.128;  -0.610;   5.972;   1.298;;;;;;;;;;;;;;;;;;
2007-12-03T00:20:26.502Z;0;8.9330e+00;0;     0.050;  2551.304;  26961.070; 0;  26840.086;  26961.070;  28146.035;  25594.730; 53;   6.139; 291.329; 155.646; 175.446; 143.466; 163.573;  18.390;  12.202;  11.854;   6.426;   6.125;  -0.612;   5.969;   1.298;;;;;;;;;;;;;;;;;;
2007-12-03T00:20:42.502Z;0;8.9870e+00;0;     0.051;  2551.304;  27041.393; 0;  26920.768;  27041.393;  28226.627;  25675.322; 53;   6.137; 291.457; 155.771; 175.575; 143.592; 163.703;  18.392;  12.201;  11.853;   6.423;   6.122;  -0.615;   5.967;   1.297;;;;;;;;;;;;;;;;;;
2007-12-03T00:20:58.502Z;0;8.9550e+00;0;     0.054;  2551.304;  26993.547; 0;  26872.707;  26993.547;  28178.621;  25627.316; 53;   6.134; 291.584; 155.896; 175.703; 143.717; 163.832;  18.393;  12.200;  11.852;   6.421;   6.120;  -0.617;   5.964;   1.296;;;;;;;;;;;;;;;;;;
2007-12-03T00:21:14.502Z;0;8.9060e+00;0;     0.059;  2562.364;  26920.557; 0;  26798.334;  26920.557;  28110.123;  25547.760; 53;   6.131; 291.712; 156.021; 175.832; 143.842; 163.961;  18.395;  12.199;  11.851;   6.418;   6.117;  -0.619;   5.961;   1.296;;;;;;;;;;;;;;;;;;
2007-12-03T00:21:30.502Z;0;8.9210e+00;0;     0.066;  2562.364;  26943.418; 0;  26821.299;  26943.418;  28133.062;  25570.699; 53;   6.129; 291.839; 156.147; 175.961; 143.967; 164.091;  18.396;  12.198;  11.850;   6.415;   6.115;  -0.621;   5.958;   1.295;;;;;;;;;;;;;;;;;;
2007-12-03T00:21:46.502Z;0;8.8570e+00;0;     0.068;  2562.364;  26847.096; 0;  26724.537;  26847.096;  28036.410;  25474.047; 53;   6.126; 291.967; 156.272; 176.090; 144.092; 164.220;  18.398;  12.197;  11.848;   6.412;   6.112;  -0.623;   5.956;   1.294;;;;;;;;;;;;;;;;;;
2007-12-03T00:22:02.502Z;0;8.7860e+00;0;     0.062;  2573.760;  26741.527; 0;  26617.383;  26741.527;  27935.354;  25361.594; 53;   6.124; 292.094; 156.397; 176.218; 144.217; 164.349;  18.399;  12.196;  11.847;   6.410;   6.110;  -0.625;   5.953;   1.294;;;;;;;;;;;;;;;;;;
2007-12-03T00:22:18.502Z;0;8.6710e+00;0;     0.079;  2573.760;  26567.982; 0;  26443.023;  26567.982;  27761.197;  25187.438; 53;   6.121; 292.222; 156.522; 176.347; 144.341; 164.479;  18.401;  12.195;  11.846;   6.407;   6.107;  -0.627;   5.950;   1.293;;;;;;;;;;;;;;;;;;